Orbital Elements at Epoch 2459000.5 (2020-May-31.0) TDB
Reference: JPL 25 (heliocentric ecliptic J2000)
Element | Value | Uncertainty (1-sigma) | Units |
e | .1554103999304666 | 4.3649e-08 | |
a | 3.131127291847343 | 2.266e-08 | au |
q | 2.644517547188149 | 1.4267e-07 | au |
i | 6.719674700311359 | 5.2424e-06 | deg |
node | 266.7964630045871 | 4.2543e-05 | deg |
peri | 217.1821417687143 | 4.684e-05 | deg |
M | 339.4307442206757 | 1.9257e-05 | deg |
tp | 2459116.128685968451 (2020-Sep-23.62868597) | 0.00010872 | TDB |
period | 2023.715753026128 5.54 | 2.1968e-05 6.015e-08 | d yr |
n | .1778905952882366 | 1.9311e-09 | deg/d |
Q | 3.617737036506537 | 2.6181e-08 | au |
|
| | Orbit Determination Parameters
Additional Information
|